Location: Ash Swamp
(41.5170°N, 74.6157°W)
Time: 17:23:03
(UTC+00:00)

Cosmos 1000 Rocket - Pass Details

Date: 14 July 2020
Orbit: 954 x 991 km, 82.9° (Epoch: 04 August)

Event Time Altitude Azimuth Distance (km) Brightness Sun altitude
Rises 04:45:07 0° 350° (N) 3,715 8.9 -26.7°
Reaches altitude 10° 04:47:39 10° 350° (N) 2,762 7.9 -26.8°
Maximum altitude 04:53:59 77° 266° (W) 1,017 4.5 -26.8°
Enters shadow 04:54:50 66° 206° (SSW) 1,075 4.4 -26.8°
